Check out our new BloomSky Weather System.

Active alerts


No alerts


Thunder radar  blitzortung!


Rain radar more information rain snow radar


Visit our other weather sites:

Template documentation
and downloads

And another site



Weather Underground History page Text

Daily Summary for July 30, 2017 Units:  English    Metric   Both
« Previous Day
Next Day »
Daily Weekly Monthly Yearly Custom
  High: Low: Average:
Temperature: 94.8 °F 79.9 °F 86.8 °F
Dew Point: 80.6 °F 67.6 °F 76.4 °F
Humidity: 92 % 51 % 73 %
Wind Speed: 8.0 mph 0.0 mph 1.7 mph
Wind Gust: 12.0 mph - -
Wind:- - SSW
Pressure: 29.97 in 29.89 in -
Precipitation: 0.00 in    
Historical Graphs
 
 
Tabular Data for July 30, 2017
Time Temperature Dew Point Pressure Wind Wind Speed Wind Gust Humidity Rainfall Rate (Hourly)
00:03 84.6 °F 76.1 °F 29.90 in South 4.0 mph 5.0 mph 76 % 0.00 in
00:08 84.4 °F 75.9 °F 29.90 in Calm   5.0 mph 76 % 0.00 in
00:13 84.2 °F 76.3 °F 29.90 in South 1.0 mph 5.0 mph 77 % 0.00 in
00:18 84.0 °F 76.5 °F 29.90 in SSE 2.0 mph 5.0 mph 78 % 0.00 in
00:23 84.0 °F 76.8 °F 29.90 in SSW 1.0 mph 5.0 mph 79 % 0.00 in
00:28 83.8 °F 76.6 °F 29.90 in SSW 2.0 mph 5.0 mph 79 % 0.00 in
00:33 83.8 °F 77.0 °F 29.90 in SSW 4.0 mph 5.0 mph 80 % 0.00 in
00:43 83.7 °F 77.2 °F 29.90 in SSE 3.0 mph 5.0 mph 81 % 0.00 in
00:48 83.7 °F 77.2 °F 29.90 in South 3.0 mph 5.0 mph 81 % 0.00 in
00:53 83.7 °F 77.5 °F 29.90 in Calm   5.0 mph 82 % 0.00 in
00:58 83.5 °F 77.4 °F 29.90 in SSW 2.0 mph 5.0 mph 82 % 0.00 in
01:03 83.5 °F 77.4 °F 29.90 in SSE 2.0 mph 4.0 mph 82 % 0.00 in
01:09 83.3 °F 77.2 °F 29.90 in South 3.0 mph 4.0 mph 82 % 0.00 in
01:14 83.3 °F 77.5 °F 29.90 in South 1.0 mph 4.0 mph 83 % 0.00 in
01:19 83.1 °F 77.4 °F 29.90 in Calm   3.0 mph 83 % 0.00 in
01:24 82.9 °F 77.2 °F 29.90 in Calm   3.0 mph 83 % 0.00 in
01:29 82.8 °F 77.4 °F 29.90 in South 1.0 mph 2.0 mph 84 % 0.00 in
01:34 82.8 °F 77.4 °F 29.90 in SSE 1.0 mph 2.0 mph 84 % 0.00 in
01:39 82.6 °F 77.2 °F 29.90 in Calm   2.0 mph 84 % 0.00 in
01:44 82.6 °F 77.2 °F 29.90 in Calm   2.0 mph 84 % 0.00 in
01:49 82.2 °F 76.8 °F 29.90 in Calm   2.0 mph 84 % 0.00 in
01:54 82.0 °F 77.0 °F 29.90 in Calm   2.0 mph 85 % 0.00 in
01:59 82.0 °F 77.0 °F 29.89 in Calm     85 % 0.00 in
02:04 81.9 °F 77.2 °F 29.89 in Calm     86 % 0.00 in
02:09 81.7 °F 77.0 °F 29.89 in Calm     86 % 0.00 in
02:14 81.7 °F 77.0 °F 29.89 in Calm     86 % 0.00 in
02:19 81.3 °F 76.6 °F 29.89 in Calm     86 % 0.00 in
02:24 81.1 °F 76.5 °F 29.89 in Calm     86 % 0.00 in
02:29 81.1 °F 76.8 °F 29.89 in Calm     87 % 0.00 in
02:34 81.1 °F 76.8 °F 29.89 in Calm     87 % 0.00 in
02:39 81.1 °F 76.8 °F 29.90 in Calm   1.0 mph 87 % 0.00 in
02:44 81.3 °F 77.0 °F 29.89 in Calm   1.0 mph 87 % 0.00 in
02:49 81.3 °F 77.0 °F 29.89 in Calm   1.0 mph 87 % 0.00 in
02:54 81.3 °F 77.0 °F 29.89 in Calm   1.0 mph 87 % 0.00 in
02:59 81.1 °F 76.8 °F 29.89 in SW 1.0 mph 1.0 mph 87 % 0.00 in
03:04 81.1 °F 76.8 °F 29.89 in Calm   1.0 mph 87 % 0.00 in
03:09 81.0 °F 76.6 °F 29.89 in Calm   1.0 mph 87 % 0.00 in
03:14 81.1 °F 77.2 °F 29.89 in Calm   1.0 mph 88 % 0.00 in
03:19 81.1 °F 77.2 °F 29.89 in Calm   1.0 mph 88 % 0.00 in
03:24 81.1 °F 77.5 °F 29.90 in Calm   1.0 mph 89 % 0.00 in
03:29 81.1 °F 77.5 °F 29.90 in Calm   1.0 mph 89 % 0.00 in
03:34 81.1 °F 77.5 °F 29.90 in Calm   1.0 mph 89 % 0.00 in
03:39 81.1 °F 77.5 °F 29.90 in Calm   1.0 mph 89 % 0.00 in
03:44 81.3 °F 77.7 °F 29.90 in Calm   1.0 mph 89 % 0.00 in
03:49 81.3 °F 77.7 °F 29.90 in Calm   1.0 mph 89 % 0.00 in
03:54 81.3 °F 77.7 °F 29.91 in Calm     89 % 0.00 in
04:00 81.1 °F 77.5 °F 29.90 in Calm     89 % 0.00 in
04:05 81.1 °F 77.9 °F 29.90 in Calm     90 % 0.00 in
04:10 81.0 °F 77.4 °F 29.90 in Calm     89 % 0.00 in
04:15 81.0 °F 77.7 °F 29.90 in Calm     90 % 0.00 in
04:20 81.1 °F 77.9 °F 29.90 in Calm     90 % 0.00 in
04:25 81.1 °F 77.9 °F 29.91 in Calm     90 % 0.00 in
04:30 81.0 °F 77.7 °F 29.91 in Calm     90 % 0.00 in
04:35 81.0 °F 77.7 °F 29.91 in Calm     90 % 0.00 in
04:40 81.0 °F 77.7 °F 29.91 in Calm     90 % 0.00 in
04:50 81.0 °F 78.1 °F 29.91 in Calm     91 % 0.00 in
04:55 81.0 °F 78.1 °F 29.91 in Calm     91 % 0.00 in
05:00 81.1 °F 78.3 °F 29.91 in Calm     91 % 0.00 in
05:05 81.3 °F 78.4 °F 29.91 in Calm   1.0 mph 91 % 0.00 in
05:06 81.3 °F 78.4 °F 29.91 in WNW 1.0 mph 1.0 mph 91 % 0.00 in
05:11 81.7 °F 78.4 °F 29.91 in WNW 1.0 mph 2.0 mph 90 % 0.00 in
05:16 81.7 °F 78.4 °F 29.91 in NW 1.0 mph 2.0 mph 90 % 0.00 in
05:21 81.9 °F 78.6 °F 29.91 in Calm   2.0 mph 90 % 0.00 in
05:26 81.9 °F 78.6 °F 29.91 in Calm   2.0 mph 90 % 0.00 in
05:31 81.9 °F 78.6 °F 29.91 in Calm   1.0 mph 90 % 0.00 in
05:36 81.7 °F 78.4 °F 29.91 in Calm   1.0 mph 90 % 0.00 in
05:41 81.7 °F 78.4 °F 29.92 in NNW 1.0 mph 1.0 mph 90 % 0.00 in
05:46 81.7 °F 78.4 °F 29.92 in Calm   2.0 mph 90 % 0.00 in
05:51 81.5 °F 78.6 °F 29.92 in Calm   2.0 mph 91 % 0.00 in
05:56 81.5 °F 78.3 °F 29.92 in Calm   2.0 mph 90 % 0.00 in
06:01 81.3 °F 78.4 °F 29.92 in Calm   1.0 mph 91 % 0.00 in
06:02 81.3 °F 78.4 °F 29.92 in Calm   1.0 mph 91 % 0.00 in
06:07 81.3 °F 78.4 °F 29.92 in Calm   1.0 mph 91 % 0.00 in
06:12 81.1 °F 78.3 °F 29.92 in Calm   1.0 mph 91 % 0.00 in
06:17 81.1 °F 78.3 °F 29.92 in Calm   1.0 mph 91 % 0.00 in
06:22 81.1 °F 78.3 °F 29.92 in Calm   1.0 mph 91 % 0.00 in
06:27 81.1 °F 78.3 °F 29.92 in Calm   1.0 mph 91 % 0.00 in
06:32 81.1 °F 78.3 °F 29.93 in Calm   1.0 mph 91 % 0.00 in
06:37 81.1 °F 78.3 °F 29.93 in Calm   1.0 mph 91 % 0.00 in
06:42 81.1 °F 78.3 °F 29.94 in Calm   1.0 mph 91 % 0.00 in
06:47 81.1 °F 78.3 °F 29.93 in Calm   1.0 mph 91 % 0.00 in
06:52 81.1 °F 78.3 °F 29.94 in Calm     91 % 0.00 in
06:57 81.1 °F 78.3 °F 29.94 in Calm     91 % 0.00 in
07:02 81.1 °F 78.3 °F 29.94 in Calm     91 % 0.00 in
07:07 81.1 °F 78.6 °F 29.94 in Calm   1.0 mph 92 % 0.00 in
07:12 81.3 °F 78.8 °F 29.94 in ESE 1.0 mph 1.0 mph 92 % 0.00 in
07:17 81.5 °F 78.6 °F 29.94 in Calm   2.0 mph 91 % 0.00 in
07:22 81.7 °F 78.8 °F 29.94 in SSE 1.0 mph 2.0 mph 91 % 0.00 in
07:27 81.9 °F 79.0 °F 29.94 in South 1.0 mph 2.0 mph 91 % 0.00 in
07:32 81.9 °F 79.0 °F 29.94 in Calm   2.0 mph 91 % 0.00 in
07:37 81.9 °F 79.0 °F 29.94 in Calm   2.0 mph 91 % 0.00 in
07:42 82.0 °F 79.2 °F 29.94 in SSW 1.0 mph 2.0 mph 91 % 0.00 in
07:47 82.0 °F 79.2 °F 29.94 in Calm   3.0 mph 91 % 0.00 in
07:52 82.6 °F 79.7 °F 29.94 in Calm   3.0 mph 91 % 0.00 in
07:57 83.1 °F 79.5 °F 29.94 in Calm   4.0 mph 89 % 0.00 in
07:58 83.1 °F 79.5 °F 29.94 in Calm   4.0 mph 89 % 0.00 in
08:03 84.0 °F 80.1 °F 29.95 in SSW 1.0 mph 4.0 mph 88 % 0.00 in
08:08 84.7 °F 80.1 °F 29.95 in Calm   4.0 mph 86 % 0.00 in
08:13 85.5 °F 80.1 °F 29.95 in Calm   3.0 mph 84 % 0.00 in
08:18 85.6 °F 79.9 °F 29.95 in Calm   3.0 mph 83 % 0.00 in
08:23 86.0 °F 80.2 °F 29.95 in Calm   4.0 mph 83 % 0.00 in
08:28 85.8 °F 79.7 °F 29.95 in SSW 3.0 mph 4.0 mph 82 % 0.00 in
08:33 85.6 °F 79.2 °F 29.96 in SSW 2.0 mph 4.0 mph 81 % 0.00 in
08:38 85.8 °F 79.3 °F 29.96 in SSE 2.0 mph 3.0 mph 81 % 0.00 in
08:39 85.8 °F 79.3 °F 29.96 in SW 4.0 mph 4.0 mph 81 % 0.00 in
08:44 86.0 °F 79.2 °F 29.96 in SSE 1.0 mph 4.0 mph 80 % 0.00 in
08:49 86.2 °F 79.3 °F 29.96 in Calm   4.0 mph 80 % 0.00 in
08:54 86.4 °F 79.0 °F 29.96 in NW 1.0 mph 4.0 mph 79 % 0.00 in
08:59 86.5 °F 78.1 °F 29.96 in NNW 1.0 mph 3.0 mph 76 % 0.00 in
09:04 86.5 °F 78.4 °F 29.96 in Calm   3.0 mph 77 % 0.00 in
09:09 87.3 °F 79.5 °F 29.96 in Calm   4.0 mph 78 % 0.00 in
09:14 88.2 °F 79.7 °F 29.96 in Calm   4.0 mph 76 % 0.00 in
09:19 88.2 °F 78.8 °F 29.96 in North 2.0 mph 4.0 mph 74 % 0.00 in
09:20 88.2 °F 78.4 °F 29.96 in Calm   3.0 mph 73 % 0.00 in
09:25 88.0 °F 78.6 °F 29.96 in NNW 2.0 mph 4.0 mph 74 % 0.00 in
09:30 87.4 °F 78.6 °F 29.96 in NW 1.0 mph 4.0 mph 75 % 0.00 in
09:35 87.6 °F 80.2 °F 29.96 in NW 2.0 mph 5.0 mph 79 % 0.00 in
09:36 87.6 °F 80.2 °F 29.96 in Calm   5.0 mph 79 % 0.00 in
09:41 87.1 °F 80.2 °F 29.96 in North 3.0 mph 8.0 mph 80 % 0.00 in
09:46 86.5 °F 80.1 °F 29.96 in Calm   8.0 mph 81 % 0.00 in
09:51 86.4 °F 79.5 °F 29.97 in East 2.0 mph 8.0 mph 80 % 0.00 in
09:56 85.8 °F 79.3 °F 29.97 in NE 3.0 mph 7.0 mph 81 % 0.00 in
10:02 85.5 °F 79.0 °F 29.97 in ENE 2.0 mph 8.0 mph 81 % 0.00 in
10:06 85.5 °F 79.0 °F 29.97 in ENE 3.0 mph 8.0 mph 81 % 0.00 in
10:11 85.5 °F 78.6 °F 29.97 in East 3.0 mph 8.0 mph 80 % 0.00 in
10:16 85.8 °F 78.6 °F 29.97 in WSW 1.0 mph 7.0 mph 79 % 0.00 in
10:22 86.0 °F 79.2 °F 29.97 in ESE 2.0 mph 7.0 mph 80 % 0.00 in
10:27 86.4 °F 79.0 °F 29.96 in NW 3.0 mph 6.0 mph 79 % 0.00 in
10:32 86.7 °F 79.0 °F 29.96 in East 1.0 mph 6.0 mph 78 % 0.00 in
10:37 87.4 °F 79.7 °F 29.96 in SSE 1.0 mph 6.0 mph 78 % 0.00 in
10:42 88.3 °F 79.9 °F 29.96 in Calm   6.0 mph 76 % 0.00 in
10:47 88.5 °F 79.2 °F 29.96 in East 2.0 mph 5.0 mph 74 % 0.00 in
10:52 88.3 °F 79.0 °F 29.96 in Calm   4.0 mph 74 % 0.00 in
10:57 88.9 °F 79.5 °F 29.97 in NNW 1.0 mph 4.0 mph 74 % 0.00 in
11:02 89.6 °F 80.6 °F 29.97 in East 2.0 mph 5.0 mph 75 % 0.00 in
11:07 90.3 °F 80.1 °F 29.97 in NNW 3.0 mph 5.0 mph 72 % 0.00 in
11:12 89.8 °F 79.5 °F 29.97 in NNW 4.0 mph 6.0 mph 72 % 0.00 in
11:17 89.6 °F 79.3 °F 29.97 in West 1.0 mph 8.0 mph 72 % 0.00 in
11:22 89.1 °F 79.3 °F 29.97 in SE 3.0 mph 8.0 mph 73 % 0.00 in
11:27 89.1 °F 79.3 °F 29.97 in NE 1.0 mph 8.0 mph 73 % 0.00 in
11:32 89.6 °F 79.3 °F 29.97 in ESE 1.0 mph 6.0 mph 72 % 0.00 in
11:37 90.1 °F 79.0 °F 29.97 in East 3.0 mph 6.0 mph 70 % 0.00 in
11:42 90.0 °F 79.3 °F 29.97 in NNE 1.0 mph 6.0 mph 71 % 0.00 in
11:47 90.1 °F 79.9 °F 29.96 in North 3.0 mph 7.0 mph 72 % 0.00 in
11:52 90.3 °F 80.1 °F 29.96 in NE 5.0 mph 7.0 mph 72 % 0.00 in
11:57 90.1 °F 78.6 °F 29.96 in WNW 1.0 mph 7.0 mph 69 % 0.00 in
11:58 90.1 °F 79.0 °F 29.96 in NW 2.0 mph 7.0 mph 70 % 0.00 in
12:03 90.1 °F 79.0 °F 29.96 in ENE 7.0 mph 7.0 mph 70 % 0.00 in
12:04 90.1 °F 79.0 °F 29.96 in ENE 7.0 mph 7.0 mph 70 % 0.00 in
12:09 90.1 °F 79.0 °F 29.96 in WNW 2.0 mph 7.0 mph 70 % 0.00 in
12:14 90.3 °F 78.8 °F 29.96 in SSE 2.0 mph 7.0 mph 69 % 0.00 in
12:19 91.0 °F 79.5 °F 29.96 in East 5.0 mph 7.0 mph 69 % 0.00 in
12:24 91.2 °F 78.8 °F 29.96 in NE 3.0 mph 6.0 mph 67 % 0.00 in
12:29 91.0 °F 79.0 °F 29.96 in East 7.0 mph 7.0 mph 68 % 0.00 in
12:34 90.9 °F 78.8 °F 29.96 in NNW 1.0 mph 7.0 mph 68 % 0.00 in
12:39 91.2 °F 79.7 °F 29.96 in NNW 3.0 mph 7.0 mph 69 % 0.00 in
12:44 91.9 °F 79.3 °F 29.96 in ESE 2.0 mph 7.0 mph 67 % 0.00 in
12:49 91.9 °F 79.0 °F 29.96 in NNW 5.0 mph 6.0 mph 66 % 0.00 in
12:54 91.8 °F 79.2 °F 29.96 in WSW 1.0 mph 9.0 mph 67 % 0.00 in
12:59 92.5 °F 79.9 °F 29.96 in ENE 2.0 mph 9.0 mph 67 % 0.00 in
13:04 92.5 °F 79.5 °F 29.96 in ENE 2.0 mph 9.0 mph 66 % 0.00 in
13:09 92.5 °F 79.0 °F 29.96 in NE 2.0 mph 7.0 mph 65 % 0.00 in
13:14 92.1 °F 79.5 °F 29.96 in NW 3.0 mph 6.0 mph 67 % 0.00 in
13:19 91.9 °F 79.0 °F 29.95 in East 4.0 mph 7.0 mph 66 % 0.00 in
13:24 92.1 °F 79.5 °F 29.95 in WNW 1.0 mph 7.0 mph 67 % 0.00 in
13:29 92.7 °F 80.1 °F 29.95 in NE 4.0 mph 7.0 mph 67 % 0.00 in
13:34 92.3 °F 79.3 °F 29.95 in NNE 1.0 mph 6.0 mph 66 % 0.00 in
13:39 91.6 °F 79.0 °F 29.95 in NNW 1.0 mph 6.0 mph 67 % 0.00 in
13:44 90.9 °F 79.3 °F 29.95 in NNW 1.0 mph 8.0 mph 69 % 0.00 in
13:49 91.0 °F 79.5 °F 29.94 in East 3.0 mph 8.0 mph 69 % 0.00 in
13:54 90.9 °F 79.7 °F 29.94 in Calm   8.0 mph 70 % 0.00 in
13:59 91.6 °F 79.5 °F 29.94 in ENE 3.0 mph 7.0 mph 68 % 0.00 in
14:04 91.9 °F 79.3 °F 29.94 in NW 3.0 mph 7.0 mph 67 % 0.00 in
14:09 91.9 °F 79.3 °F 29.94 in SE 5.0 mph 7.0 mph 67 % 0.00 in
14:14 92.1 °F 79.2 °F 29.94 in Calm   6.0 mph 66 % 0.00 in
14:19 92.5 °F 79.0 °F 29.94 in East 3.0 mph 7.0 mph 65 % 0.00 in
14:24 92.5 °F 79.5 °F 29.93 in WNW 2.0 mph 7.0 mph 66 % 0.00 in
14:29 92.8 °F 79.9 °F 29.93 in NNW 3.0 mph 7.0 mph 66 % 0.00 in
14:34 92.5 °F 79.5 °F 29.93 in ENE 2.0 mph 7.0 mph 66 % 0.00 in
14:39 92.1 °F 79.2 °F 29.93 in NNE 2.0 mph 9.0 mph 66 % 0.00 in
14:44 91.9 °F 79.3 °F 29.93 in SSW 2.0 mph 9.0 mph 67 % 0.00 in
14:49 93.0 °F 80.4 °F 29.93 in East 4.0 mph 9.0 mph 67 % 0.00 in
14:54 93.6 °F 79.5 °F 29.93 in NW 1.0 mph 5.0 mph 64 % 0.00 in
14:59 93.0 °F 79.5 °F 29.92 in West 1.0 mph 5.0 mph 65 % 0.00 in
15:04 93.2 °F 78.8 °F 29.92 in Calm   5.0 mph 63 % 0.00 in
15:09 93.4 °F 79.9 °F 29.92 in ENE 2.0 mph 7.0 mph 65 % 0.00 in
15:14 93.6 °F 79.0 °F 29.92 in NW 4.0 mph 7.0 mph 63 % 0.00 in
15:19 93.2 °F 79.2 °F 29.92 in NW 2.0 mph 7.0 mph 64 % 0.00 in
15:24 93.2 °F 79.2 °F 29.92 in NW 1.0 mph 6.0 mph 64 % 0.00 in
15:29 93.4 °F 79.3 °F 29.92 in East 4.0 mph 6.0 mph 64 % 0.00 in
15:34 93.6 °F 78.6 °F 29.92 in NNW 2.0 mph 6.0 mph 62 % 0.00 in
15:39 93.2 °F 78.3 °F 29.92 in Calm   6.0 mph 62 % 0.00 in
15:44 93.2 °F 78.3 °F 29.92 in NNW 3.0 mph 9.0 mph 62 % 0.00 in
15:49 92.8 °F 78.4 °F 29.92 in NNW 2.0 mph 9.0 mph 63 % 0.00 in
15:54 92.8 °F 78.4 °F 29.91 in North 3.0 mph 9.0 mph 63 % 0.00 in
15:59 92.7 °F 78.3 °F 29.91 in NW 3.0 mph 9.0 mph 63 % 0.00 in
16:05 93.0 °F 78.1 °F 29.91 in East 1.0 mph 9.0 mph 62 % 0.00 in
16:10 93.6 °F 78.1 °F 29.91 in North 2.0 mph 6.0 mph 61 % 0.00 in
16:15 93.2 °F 77.7 °F 29.91 in NE 5.0 mph 7.0 mph 61 % 0.00 in
16:20 93.0 °F 77.5 °F 29.91 in NNW 5.0 mph 10.0 mph 61 % 0.00 in
16:25 93.0 °F 76.6 °F 29.91 in WNW 2.0 mph 10.0 mph 59 % 0.00 in
16:30 93.6 °F 77.5 °F 29.91 in ENE 1.0 mph 10.0 mph 60 % 0.00 in
16:35 93.9 °F 77.4 °F 29.91 in ENE 3.0 mph 8.0 mph 59 % 0.00 in
16:40 94.1 °F 77.0 °F 29.91 in NNW 3.0 mph 7.0 mph 58 % 0.00 in
16:45 93.9 °F 76.8 °F 29.91 in NW 3.0 mph 8.0 mph 58 % 0.00 in
16:50 94.3 °F 76.1 °F 29.91 in NNE 6.0 mph 8.0 mph 56 % 0.00 in
16:55 94.3 °F 77.2 °F 29.91 in ENE 5.0 mph 9.0 mph 58 % 0.00 in
17:00 93.7 °F 76.3 °F 29.91 in NW 1.0 mph 9.0 mph 57 % 0.00 in
17:05 93.6 °F 77.0 °F 29.91 in NNW 3.0 mph 8.0 mph 59 % 0.00 in
17:10 94.3 °F 77.2 °F 29.91 in NNE 5.0 mph 7.0 mph 58 % 0.00 in
17:15 94.5 °F 76.8 °F 29.91 in NE 1.0 mph 9.0 mph 57 % 0.00 in
17:20 94.8 °F 76.6 °F 29.90 in NNW 3.0 mph 9.0 mph 56 % 0.00 in
17:25 94.8 °F 75.0 °F 29.90 in NNE 4.0 mph 10.0 mph 53 % 0.00 in
17:30 94.6 °F 75.4 °F 29.90 in NE 1.0 mph 10.0 mph 54 % 0.00 in
17:35 94.8 °F 75.6 °F 29.90 in NW 5.0 mph 10.0 mph 54 % 0.00 in
17:40 94.6 °F 75.9 °F 29.90 in NNW 3.0 mph 8.0 mph 55 % 0.00 in
17:45 94.5 °F 74.7 °F 29.90 in North 4.0 mph 8.0 mph 53 % 0.00 in
17:50 94.3 °F 75.0 °F 29.90 in NNW 5.0 mph 8.0 mph 54 % 0.00 in
17:55 94.3 °F 75.0 °F 29.90 in East 2.0 mph 10.0 mph 54 % 0.00 in
18:00 94.1 °F 74.3 °F 29.90 in NW 4.0 mph 10.0 mph 53 % 0.00 in
18:05 93.9 °F 73.0 °F 29.89 in WNW 3.0 mph 10.0 mph 51 % 0.00 in
18:10 93.9 °F 73.6 °F 29.89 in NNW 3.0 mph 10.0 mph 52 % 0.00 in
18:15 93.9 °F 73.0 °F 29.89 in NNE 2.0 mph 12.0 mph 51 % 0.00 in
18:20 93.7 °F 72.9 °F 29.89 in NNW 2.0 mph 12.0 mph 51 % 0.00 in
18:25 93.9 °F 73.6 °F 29.89 in NNW 5.0 mph 12.0 mph 52 % 0.00 in
18:30 93.6 °F 72.7 °F 29.89 in NW 4.0 mph 10.0 mph 51 % 0.00 in
18:35 93.4 °F 72.5 °F 29.89 in NW 1.0 mph 8.0 mph 51 % 0.00 in
18:40 93.4 °F 72.5 °F 29.89 in NNW 2.0 mph 12.0 mph 51 % 0.00 in
18:45 93.0 °F 72.9 °F 29.89 in North 5.0 mph 12.0 mph 52 % 0.00 in
18:50 92.7 °F 72.0 °F 29.90 in NW 2.0 mph 12.0 mph 51 % 0.00 in
18:55 92.5 °F 72.3 °F 29.90 in NNW 7.0 mph 10.0 mph 52 % 0.00 in
19:00 92.1 °F 72.5 °F 29.90 in NW 6.0 mph 10.0 mph 53 % 0.00 in
19:05 91.9 °F 72.9 °F 29.90 in NNW 2.0 mph 10.0 mph 54 % 0.00 in
19:10 91.9 °F 72.9 °F 29.90 in ENE 8.0 mph 10.0 mph 54 % 0.00 in
19:15 91.8 °F 72.7 °F 29.90 in NW 2.0 mph 10.0 mph 54 % 0.00 in
19:20 91.6 °F 72.5 °F 29.90 in NNE 2.0 mph 10.0 mph 54 % 0.00 in
19:25 91.0 °F 72.7 °F 29.90 in ESE 3.0 mph 9.0 mph 55 % 0.00 in
19:30 90.7 °F 72.9 °F 29.90 in ENE 4.0 mph 7.0 mph 56 % 0.00 in
19:31 90.7 °F 72.9 °F 29.90 in Calm   7.0 mph 56 % 0.00 in
19:36 90.3 °F 72.5 °F 29.90 in ENE 5.0 mph 7.0 mph 56 % 0.00 in
19:41 90.0 °F 72.7 °F 29.90 in ENE 5.0 mph 7.0 mph 57 % 0.00 in
19:46 89.8 °F 72.5 °F 29.90 in NW 3.0 mph 7.0 mph 57 % 0.00 in
19:51 89.4 °F 72.1 °F 29.90 in NE 3.0 mph 7.0 mph 57 % 0.00 in
19:56 89.1 °F 72.3 °F 29.90 in North 2.0 mph 7.0 mph 58 % 0.00 in
20:01 88.9 °F 72.1 °F 29.90 in NNW 1.0 mph 7.0 mph 58 % 0.00 in
20:06 88.5 °F 71.8 °F 29.91 in WNW 2.0 mph 6.0 mph 58 % 0.00 in
20:11 88.3 °F 72.1 °F 29.91 in North 2.0 mph 8.0 mph 59 % 0.00 in
20:16 88.2 °F 72.0 °F 29.91 in NE 1.0 mph 10.0 mph 59 % 0.00 in
20:21 88.0 °F 71.8 °F 29.91 in NNW 1.0 mph 10.0 mph 59 % 0.00 in
20:26 87.6 °F 71.6 °F 29.91 in ENE 5.0 mph 10.0 mph 59 % 0.00 in
20:31 87.4 °F 71.4 °F 29.91 in NNW 3.0 mph 5.0 mph 59 % 0.00 in
20:36 87.3 °F 71.2 °F 29.91 in WNW 1.0 mph 9.0 mph 59 % 0.00 in
20:41 87.3 °F 71.2 °F 29.91 in NNW 3.0 mph 9.0 mph 59 % 0.00 in
20:46 87.1 °F 71.4 °F 29.92 in NNW 2.0 mph 9.0 mph 60 % 0.00 in
20:52 86.9 °F 71.4 °F 29.92 in NW 3.0 mph 9.0 mph 60 % 0.00 in
20:57 86.7 °F 71.2 °F 29.92 in ENE 2.0 mph 9.0 mph 60 % 0.00 in
21:02 86.4 °F 71.2 °F 29.92 in North 3.0 mph 9.0 mph 61 % 0.00 in
21:07 86.2 °F 71.1 °F 29.92 in East 1.0 mph 6.0 mph 61 % 0.00 in
21:12 86.0 °F 71.1 °F 29.92 in NE 3.0 mph 4.0 mph 61 % 0.00 in
21:17 85.8 °F 70.9 °F 29.92 in North 2.0 mph 6.0 mph 61 % 0.00 in
21:22 85.6 °F 70.7 °F 29.93 in NE 3.0 mph 6.0 mph 61 % 0.00 in
21:27 85.5 °F 70.5 °F 29.93 in NW 1.0 mph 8.0 mph 61 % 0.00 in
21:32 85.3 °F 69.8 °F 29.93 in NNW 1.0 mph 8.0 mph 60 % 0.00 in
21:37 84.9 °F 68.9 °F 29.93 in NNE 1.0 mph 8.0 mph 59 % 0.00 in
21:42 84.9 °F 68.9 °F 29.93 in NNW 2.0 mph 8.0 mph 59 % 0.00 in
21:47 84.6 °F 68.7 °F 29.94 in NE 1.0 mph 8.0 mph 59 % 0.00 in
21:52 84.4 °F 68.5 °F 29.94 in NW 3.0 mph 7.0 mph 59 % 0.00 in
21:57 84.2 °F 68.4 °F 29.94 in ENE 1.0 mph 8.0 mph 59 % 0.00 in
22:02 84.0 °F 68.2 °F 29.94 in East 4.0 mph 8.0 mph 59 % 0.00 in
22:08 83.8 °F 68.0 °F 29.94 in NE 2.0 mph 8.0 mph 59 % 0.00 in
22:13 83.7 °F 68.4 °F 29.94 in ENE 2.0 mph 5.0 mph 60 % 0.00 in
22:18 83.5 °F 68.2 °F 29.94 in Calm   6.0 mph 60 % 0.00 in
22:23 83.3 °F 68.0 °F 29.94 in East 1.0 mph 6.0 mph 60 % 0.00 in
22:28 83.1 °F 67.8 °F 29.94 in NE 3.0 mph 6.0 mph 60 % 0.00 in
22:33 82.9 °F 68.2 °F 29.94 in Calm   6.0 mph 61 % 0.00 in
22:38 82.8 °F 68.4 °F 29.95 in NNW 2.0 mph 4.0 mph 62 % 0.00 in
22:43 82.6 °F 68.2 °F 29.95 in NE 6.0 mph 7.0 mph 62 % 0.00 in
22:48 82.4 °F 68.0 °F 29.95 in East 3.0 mph 8.0 mph 62 % 0.00 in
22:53 82.2 °F 68.4 °F 29.95 in SW 3.0 mph 8.0 mph 63 % 0.00 in
22:58 82.2 °F 68.4 °F 29.96 in ENE 2.0 mph 8.0 mph 63 % 0.00 in
23:03 81.9 °F 68.0 °F 29.96 in North 2.0 mph 6.0 mph 63 % 0.00 in
23:08 81.7 °F 68.4 °F 29.96 in NE 1.0 mph 6.0 mph 64 % 0.00 in
23:13 81.7 °F 68.4 °F 29.96 in NNE 1.0 mph 4.0 mph 64 % 0.00 in
23:18 81.3 °F 68.0 °F 29.96 in Calm   5.0 mph 64 % 0.00 in
23:23 81.1 °F 67.8 °F 29.96 in NNW 1.0 mph 5.0 mph 64 % 0.00 in
23:28 81.0 °F 68.0 °F 29.96 in Calm   5.0 mph 65 % 0.00 in
23:33 80.8 °F 68.0 °F 29.96 in NNE 2.0 mph 3.0 mph 65 % 0.00 in
23:38 80.6 °F 67.8 °F 29.96 in Calm   2.0 mph 65 % 0.00 in
23:43 80.4 °F 67.6 °F 29.96 in Calm   3.0 mph 65 % 0.00 in
23:48 80.2 °F 67.8 °F 29.96 in Calm   3.0 mph 66 % 0.00 in
23:53 80.1 °F 67.6 °F 29.96 in Calm   3.0 mph 66 % 0.00 in
23:58 79.9 °F 68.0 °F 29.96 in Calm   2.0 mph 67 % 0.00 in
Spring, Texas: Villages of Bridgestone
Compliments of Weather Underground - 2.75 mb

Script developed by  Jim McMurry - jmcmurry@mwt.net Adapted for the template by  Wim van der Kuil - Leuven-Template.eu

You find our weather info also at:

UK Metoffice

WeatherCloud

Weather Underground

Mid-South Weather Network

AWEKAS

Citizen Weather Observer Program (CWOP)

HAMweather, WeatherForYou, PWS Weather

Equipment we use:

Weather-station
Davis Vantage Vue

Weather-program
Meteohub

Weather-server
Debian 7.9 x86 (Guest)

Provider
DreamHost

Davis Vantage Vue

Meteohub

Debian 7.9 x86 (Guest)

DreamHost